AirNav   Everest Fuels
 
 1153 users online  

1L4 Kidwell Airport
Cal Nev Ari, Nevada, USA

GOING TO CAL NEV ARI?


FAA INFORMATION EFFECTIVE 26 JANUARY 2023

Location

FAA Identifier: 1L4
Lat/Long: 35-18-19.9780N 114-52-57.9100W
35-18.332967N 114-52.965167W
35.3055494,-114.8827528
(estimated)
Elevation: 2605 ft. / 794 m (estimated)
Variation: 14E (1985)
Time zone: UTC -8 (UTC -7 during Daylight Saving Time)
Zip code: 89039

Airport Operations

Airport use: Open to the public
Control tower: no
ARTCC: LOS ANGELES CENTER
FSS: RENO FLIGHT SERVICE STATION
NOTAMs facility: RNO (NOTAM-D service available)
Attendance: CONTINUOUS
Wind indicator: yes
Segmented circle: no
Lights: SS-SR

Airport Communications

CTAF: 122.9
WX AWOS-3PT at IFP (18 nm SE): 119.825 (928-754-4462)

Nearby radio navigation aids

VOR radial/distance  VOR name  Freq  Var
GFSr039/17.8GOFFS VORTAC114.4015E
EEDr313/38.1NEEDLES VORTAC115.2015E

Airport Services

Parking: tiedowns

Runway Information

Runway 15/33

Dimensions: 4140 x 65 ft. / 1262 x 20 m
APRX 5100 FT WITH UNMKD 500 FT DTHRS.
Surface: sand, in fair condition
PACKED SAND & GRVL; EDGES & ENDS SOFT SAND IN DRY CONDS; EDGES BURMED WITH 4 - 12 IN SOIL; +5 FT BRUSH IN RWY SAFETY AREA & UP TO EDGES.
Runway edge lights: non-standard
NSTD LIRL; THR LGTS 6 GREEN LGTS.
Operational restrictions: PAT TFC USE CTN: 80 FT UNLGT POLE 500 FT E OF RWY 33 THR PENETRATES TRSN AREA; 7:1 OCS TO RWY ALG HWY.
RUNWAY 15  RUNWAY 33
Traffic pattern: leftleft
Markings: none, in fair conditionnone, in fair condition
Obstructions: 5 ft. fence, 10 ft. from runway, 2:1 slope to clear15 ft. road, 560 ft. from runway, 37:1 slope to clear

Airport Ownership and Management from official FAA records

Ownership: Privately-owned
Owner: KIDWELL AIRPORT LLC
PO BOX 566
CAL-NEV-ARI, NV 89039
Phone 661-978-4234
Manager: RON BEVERS
PO BOX 497
CAL-NEV-ARI, NV 89039
Phone 661-401-8661
JERRY TYLER 661-978-4234.

Airport Operational Statistics

Aircraft based on the field: 14
Single engine airplanes: 13
Ultralights: 1
    
Aircraft operations: avg 76/week *
55% local general aviation
45% transient general aviation
* for 12-month period ending 30 September 2021

Additional Remarks

A30A-15 +70 FT TWR 350 FT L OF CNTRLN ADJ TO THR.
RESIDENTIAL AIRPARK.
WEST TWY NOT MNTND; LRG ROCKS & 6 FT BRUSH ON EDGES; USE AT YOUR OWN RISK.
ULTRALIGHT ACTVT ON & INVOF ARPT.
FOR CD CTC LOS ANGELES ARTCC AT 661-575-2079.
CTN: AUTOMOBILE TFC ON RWY.

Instrument Procedures

There are no published instrument procedures at 1L4.

Some nearby airports with instrument procedures:

KIFP - Laughlin/Bullhead International Airport (18 nm SE)
KEED - Needles Airport (35 nm S)
KBVU - Boulder City Municipal Airport (39 nm N)
KHND - Henderson Executive Airport (42 nm N)
KIGM - Kingman Airport (46 nm E)
 
Loc | Ops | Rwys | IFR | FBO | Links
Com | Nav | Svcs | Stats | Notes
Area around 1L4 (Kidwell Airport)
 
Road maps at: MapQuest Bing Google
 
Aerial photo
WARNING: Photo may not be current or correct
Aerial photo of 1L4 (Kidwell Airport)
Photo by Megan Artz
Photo taken 25-Oct-2008
on final approach to runway 33

Do you have a better or more recent aerial photo of Kidwell Airport that you would like to share? If so, please send us your photo.

 
Sectional chart

 
Airport distance calculator
Flying to Kidwell Airport? Find the distance to fly.

From to 1L4

Sunrise and sunset
Times for 06-Feb-2023
 Local
(UTC-8)
 Zulu
(UTC)
Morning civil twilight06:0914:09
Sunrise06:3614:36
Sunset17:1201:12
Evening civil twilight17:3801:38

Current date and time
Zulu (UTC)  07-Feb-2023 02:06:39
Local (UTC-8)  06-Feb-2023 18:06:39
 
METAR
KIFP 
30nm SE 
070155Z AUTO 02013KT 10SM CLR 17/M08 A3013 RMK AO2
KEED 
35nm S 
070156Z AUTO 35009KT 10SM CLR 15/M07 A3015 RMK AO2 SLP197 T01501072
KBVU 
39nm N 
070155Z AUTO 36013G20KT 10SM CLR 13/M07 A3019 RMK AO2
KHND 
42nm N 
070156Z 02009KT 10SM SCT090 12/M07 A3022 RMK AO2 SLP253 T01221067
KIGM 
47nm E 
070151Z AUTO 36016KT 10SM CLR 07/M08 A3015 RMK AO2 PK WND 36027/0105 SLP191 T00671078
KLAS 
48nm N 
070156Z 01015KT 10SM FEW090 13/M08 A3021 RMK AO2 PK WND 35027/0108 SLP225 T01281078
TAF
KIFP 
30nm SE 
061720Z 0618/0718 35025G35KT P6SM FEW110 FM070200 01015G25KT P6SM SKC FM071600 35020G30KT P6SM SKC
KEED 
35nm S 
061720Z 0618/0718 01020G30KT P6SM FEW110 FM070100 35012G22KT P6SM SKC FM071400 36012KT P6SM SKC
NOTAMs
Click for the latest NOTAMs
NOTAMs are issued by the DoD/FAA and will open in a separate window not controlled by AirNav.

 

 
 

Would you like to see your business listed on this page?

 If your business provides an interesting product or service to pilots, flight crews, aircraft, or users of the Kidwell Airport, you should consider listing it here.  To start the listing process, click on the button below
 
Add a business
 

Other Pages about Kidwell Airport

rentor.com/...
 
Update a link
 
Copyright © AirNav, LLC. All rights reserved. Privacy Policy  Contact